Weather History for KCOQ - July, 2013

Change the Weather History Date:

Saturday, July 13, 2013

  Actual Average Record
Temperature  
Mean Temperature 70 °F -  
Max Temperature 75 °F 74 °F 89 °F (1998)
Min Temperature 66 °F 53 °F 41 °F (2007)
Cooling Degree Days 6    
Growing Degree Days 20 (Base 50)    
Moisture  
Dew Point 64 °F    
Average Humidity 82    
Maximum Humidity 94    
Minimum Humidity 53    
Precipitation  
Precipitation 0.00 in - - ()
Sea Level Pressure  
Sea Level Pressure 30.02 in    
Wind  
Wind Speed 6 mph (SSE)    
Max Wind Speed 13 mph    
Max Gust Speed 18 mph    
Visibility 9 miles    
Events Rain , Thunderstorm    
Averages and records for this station are not official NWS values.
T = Trace of Precipitation, MM = Missing Value Source: NWS Daily Summary

Daily Weather History Graph

Daily Weather History Graph

Search for Another Location

Airport or City:

Trip Planner

Search our weather history database for the weather conditions in past years. The results will help you decide how hot, cold, wet, or windy it might be!

Date:

Astronomy

Jul. 13, 2013 Rise Set
Actual Time 5:29 AM CDT 9:01 PM CDT
Civil Twilight 4:51 AM CDT 9:39 PM CDT
Nautical Twilight 4:01 AM CDT 10:29 PM CDT
Astronomical Twilight 2:54 AM CDT 11:35 PM CDT
Moon 11:09 AM CDT (7/13) 11:17 PM CDT (7/13)
Length of Visible Light 16h 47m
Length of Day
15h 31m
Waxing Crescent, 26% of the Moon is Illuminated
Jul 13
Waxing Crescent
Jul 15
First Quarter
Jul 22
Full
Jul 29
Last Quarter
Aug 6
New

Hourly Weather History & Observations

Time (CDT) Temp. Dew Point Humidity Pressure Visibility Wind Dir Wind Speed Gust Speed Precip Events Conditions
12:16 AM 75.2 °F 57.2 °F 53% 29.93 in 10.0 mi South 12.7 mph 18.4 mph N/A   Clear
12:36 AM 75.2 °F 57.2 °F 53% 29.94 in 10.0 mi South 8.1 mph 17.3 mph N/A   Clear
12:56 AM 75.2 °F 57.2 °F 53% 29.94 in 10.0 mi South 12.7 mph 17.3 mph N/A Rain Light Rain
1:16 AM 73.4 °F 59.0 °F 61% 29.93 in 10.0 mi South 6.9 mph - N/A Rain Light Rain
1:36 AM 71.6 °F 59.0 °F 64% 29.93 in 10.0 mi SSE 3.5 mph - N/A Rain Light Rain
1:56 AM 71.6 °F 59.0 °F 64% 29.95 in 10.0 mi South 3.5 mph - N/A Rain , Thunderstorm Light Thunderstorms and Rain
2:16 AM 71.6 °F 59.0 °F 64% 29.94 in 10.0 mi South 6.9 mph - N/A Rain Light Rain
2:36 AM 69.8 °F 60.8 °F 73% 29.98 in 10.0 mi North 6.9 mph - N/A Rain Light Rain
2:55 AM 69.8 °F 60.8 °F 73% 29.97 in 10.0 mi Calm Calm - N/A Thunderstorm Overcast
3:16 AM 69.8 °F 60.8 °F 73% 29.96 in 10.0 mi SSE 3.5 mph - N/A   Overcast
3:36 AM 71.6 °F 60.8 °F 69% 29.95 in 10.0 mi South 4.6 mph - N/A Thunderstorm Overcast
3:55 AM 71.6 °F 59.0 °F 64% 29.95 in 10.0 mi SSE 4.6 mph - N/A Thunderstorm Overcast
4:16 AM 69.8 °F 59.0 °F 68% 29.97 in 10.0 mi SE 5.8 mph - N/A Thunderstorm Overcast
4:36 AM 69.8 °F 59.0 °F 68% 29.98 in 10.0 mi SSE 5.8 mph - N/A   Overcast
4:55 AM 69.8 °F 59.0 °F 68% 29.98 in 10.0 mi SSE 5.8 mph - N/A   Overcast
5:16 AM 68.0 °F 60.8 °F 78% 29.97 in 10.0 mi SE 5.8 mph - N/A   Overcast
5:36 AM 66.2 °F 60.8 °F 83% 29.98 in 10.0 mi SSE 3.5 mph - N/A Rain Rain
5:56 AM 66.2 °F 60.8 °F 83% 29.98 in 10.0 mi SE 5.8 mph - N/A   Overcast
6:16 AM 66.2 °F 62.6 °F 88% 29.99 in 10.0 mi Calm Calm - N/A   Overcast
6:36 AM 66.2 °F 62.6 °F 88% 29.99 in 10.0 mi Calm Calm - N/A Rain Light Rain
6:56 AM 66.2 °F 62.6 °F 88% 29.99 in 7.0 mi SE 3.5 mph - N/A Rain Light Rain
7:16 AM 66.2 °F 62.6 °F 88% 30.00 in 10.0 mi South 5.8 mph - N/A Rain Light Rain
7:36 AM 66.2 °F 64.4 °F 94% 30.00 in 5.0 mi South 6.9 mph - N/A Rain Light Rain
7:56 AM 66.2 °F 64.4 °F 94% 30.01 in 5.0 mi South 6.9 mph - N/A Rain Rain
8:16 AM 66.2 °F 64.4 °F 94% 30.02 in 7.0 mi South 6.9 mph - N/A Rain Light Rain
8:36 AM 66.2 °F 64.4 °F 94% 30.02 in 7.0 mi South 4.6 mph - N/A   Overcast
8:56 AM 66.2 °F 64.4 °F 94% 30.02 in 7.0 mi Calm Calm - N/A   Overcast
9:16 AM 66.2 °F 64.4 °F 94% 30.02 in 7.0 mi SSE 5.8 mph - N/A   Overcast
9:36 AM 66.2 °F 64.4 °F 94% 30.03 in 7.0 mi South 4.6 mph - N/A   Overcast
9:56 AM 66.2 °F 64.4 °F 94% 30.03 in 7.0 mi SSE 4.6 mph - N/A   Overcast
10:16 AM 66.2 °F 64.4 °F 94% 30.03 in 5.0 mi SSE 5.8 mph - N/A   Overcast
10:36 AM 66.2 °F 64.4 °F 94% 30.03 in 4.0 mi SSE 3.5 mph - N/A   Overcast
10:56 AM 68.0 °F 64.4 °F 88% 30.03 in 7.0 mi SE 5.8 mph - N/A   Overcast
11:16 AM 68.0 °F 64.4 °F 88% 30.03 in 7.0 mi SSE 3.5 mph - N/A   Overcast
11:36 AM 69.8 °F 64.4 °F 83% 30.03 in 10.0 mi SSE 5.8 mph - N/A   Overcast
11:56 AM 69.8 °F 66.2 °F 88% 30.03 in 10.0 mi SSE 4.6 mph - N/A   Overcast
12:15 PM 69.8 °F 66.2 °F 88% 30.03 in 10.0 mi SE 4.6 mph - N/A   Overcast
12:36 PM 71.6 °F 66.2 °F 83% 30.03 in 10.0 mi ESE 3.5 mph - N/A   Overcast
12:55 PM 71.6 °F 66.2 °F 83% 30.04 in 10.0 mi SE 4.6 mph - N/A   Overcast
1:16 PM 71.6 °F 66.2 °F 83% 30.04 in 10.0 mi SSE 3.5 mph - N/A   Overcast
1:36 PM 71.6 °F 66.2 °F 83% 30.04 in 10.0 mi SSE 5.8 mph - N/A   Overcast
1:55 PM 71.6 °F 64.4 °F 78% 30.04 in 10.0 mi SSE 6.9 mph - N/A   Overcast
2:16 PM 71.6 °F 64.4 °F 78% 30.05 in 10.0 mi South 6.9 mph - N/A   Overcast
2:36 PM 71.6 °F 64.4 °F 78% 30.05 in 10.0 mi South 5.8 mph - N/A   Overcast
2:56 PM 71.6 °F 64.4 °F 78% 30.05 in 10.0 mi South 8.1 mph - N/A   Overcast
3:16 PM 71.6 °F 64.4 °F 78% 30.06 in 10.0 mi SSE 6.9 mph - N/A   Overcast
3:36 PM 69.8 °F 66.2 °F 88% 30.06 in 10.0 mi South 6.9 mph - N/A   Overcast
3:56 PM 69.8 °F 66.2 °F 88% 30.06 in 5.0 mi SSE 4.6 mph - N/A   Overcast
4:16 PM 69.8 °F 66.2 °F 88% 30.06 in 2.0 mi SSE 3.5 mph - N/A   Overcast
4:36 PM 69.8 °F 66.2 °F 88% 30.05 in 5.0 mi Calm Calm - N/A   Overcast
4:56 PM 69.8 °F 66.2 °F 88% 30.06 in 10.0 mi Calm Calm - N/A   Overcast
5:16 PM 71.6 °F 66.2 °F 83% 30.06 in 10.0 mi South 5.8 mph - N/A Rain Light Rain
5:36 PM 71.6 °F 66.2 °F 83% 30.06 in 10.0 mi South 6.9 mph - N/A   Overcast
5:56 PM 71.6 °F 66.2 °F 83% 30.06 in 10.0 mi SSW 5.8 mph - N/A   Overcast
6:16 PM 69.8 °F 66.2 °F 88% 30.06 in 10.0 mi South 4.6 mph - N/A   Overcast
6:36 PM 69.8 °F 66.2 °F 88% 30.06 in 10.0 mi South 4.6 mph - N/A   Overcast
6:55 PM 69.8 °F 66.2 °F 88% 30.06 in 10.0 mi South 5.8 mph - N/A   Overcast
7:16 PM 69.8 °F 66.2 °F 88% 30.06 in 10.0 mi South 3.5 mph - N/A   Overcast
7:36 PM 69.8 °F 66.2 °F 88% 30.05 in 10.0 mi Calm Calm - N/A   Overcast
7:56 PM 69.8 °F 66.2 °F 88% 30.05 in 10.0 mi Calm Calm - N/A   Overcast
8:16 PM 69.8 °F 66.2 °F 88% 30.05 in 10.0 mi Calm Calm - N/A   Overcast
8:36 PM 69.8 °F 66.2 °F 88% 30.05 in 10.0 mi Calm Calm - N/A   Overcast
8:55 PM 69.8 °F 66.2 °F 88% 30.05 in 10.0 mi ESE 4.6 mph - N/A   Overcast
9:16 PM 69.8 °F 66.2 °F 88% 30.06 in 10.0 mi Calm Calm - N/A   Overcast
9:36 PM 69.8 °F 66.2 °F 88% 30.06 in 10.0 mi SE 3.5 mph - N/A   Overcast
9:55 PM 69.8 °F 64.4 °F 83% 30.07 in 10.0 mi SSE 3.5 mph - N/A   Overcast
10:16 PM 69.8 °F 64.4 °F 83% 30.07 in 10.0 mi SE 4.6 mph - N/A   Scattered Clouds
10:36 PM 69.8 °F 62.6 °F 78% 30.08 in 10.0 mi SSE 3.5 mph - N/A   Clear
10:55 PM 69.8 °F 62.6 °F 78% 30.09 in 10.0 mi SSE 4.6 mph - N/A   Clear
11:16 PM 69.8 °F 62.6 °F 78% 30.09 in 10.0 mi SSE 5.8 mph - N/A   Clear
11:36 PM 68.0 °F 62.6 °F 83% 30.08 in 10.0 mi SE 3.5 mph - N/A   Clear
11:55 PM 69.8 °F 62.6 °F 78% 30.09 in 10.0 mi South 8.1 mph - N/A   Clear